Fort Polk, LA

9:54 PM CDT on September 20, 2017 (GMT -0500)
Fort Polk

Weather History for KAQV - November, 2012

Change the Weather History Date:

Tuesday, November 20, 2012

  Actual Average (KPOE) Record (KPOE)
Temperature  
Mean Temperature 59 °F -  
Max Temperature 75 °F 65 °F 81 °F (2011)
Min Temperature 43 °F 46 °F 33 °F (2000)
Degree Days  
Heating Degree Days 6    
Growing Degree Days 9 (Base 50)    
Moisture  
Dew Point 47 °F    
Average Humidity 73    
Maximum Humidity 93    
Minimum Humidity 35    
Precipitation  
Precipitation 0.00 in - - ()
Sea Level Pressure  
Sea Level Pressure 30.17 in    
Wind  
Wind Speed 1 mph (NW)    
Max Wind Speed 5 mph    
Max Gust Speed -    
Visibility 9 miles    
Events Rain    
Averages and records for this station are not official NWS values.
T = Trace of Precipitation, MM = Missing Value Source: NWS Daily Summary

Daily Weather History Graph

Daily Weather History Graph

Search for Another Location

Airport or City:

Trip Planner

Search our weather history database for the weather conditions in past years. The results will help you decide how hot, cold, wet, or windy it might be!

Date:

Astronomy

Nov. 20, 2012 Rise Set
Actual Time 6:45 AM CST 5:12 PM CST
Civil Twilight 6:19 AM CST 5:38 PM CST
Nautical Twilight 5:50 AM CST 6:07 PM CST
Astronomical Twilight 5:20 AM CST 6:36 PM CST
Moon 12:33 PM CST (11/20) No Moon Set
Length of Visible Light 11h 18m
Length of Day
10h 26m
First Quarter, 51% of the Moon is Illuminated
Nov 20
First Quarter
Nov 28
Full
Dec 6
Last Quarter
Dec 13
New
Dec 19
First Quarter

Hourly Weather History & Observations

Time (CST) Temp. Dew Point Humidity Pressure Visibility Wind Dir Wind Speed Gust Speed Precip Events Conditions
12:56 AM 44.1 °F 42.1 °F 93% 30.18 in 10.0 mi Calm Calm - N/A   Clear
1:56 AM 43.0 °F 41.0 °F 93% 30.17 in 10.0 mi Calm Calm - N/A   Clear
2:56 AM 45.0 °F 42.1 °F 90% 30.18 in 10.0 mi Calm Calm - N/A   Scattered Clouds
3:56 AM 46.9 °F 44.1 °F 90% 30.17 in 10.0 mi Calm Calm - N/A   Overcast
4:56 AM 46.9 °F 44.1 °F 90% 30.17 in 10.0 mi Calm Calm - N/A   Partly Cloudy
5:56 AM 48.0 °F 45.0 °F 89% 30.18 in 9.0 mi Calm Calm - N/A   Mostly Cloudy
6:56 AM 48.9 °F 46.0 °F 90% 30.19 in 7.0 mi Calm Calm - N/A   Mostly Cloudy
7:56 AM 53.1 °F 48.9 °F 86% 30.21 in 5.0 mi Calm Calm - N/A   Clear
8:56 AM 61.0 °F 52.0 °F 72% 30.22 in 10.0 mi Calm Calm - 0.00 in Rain Light Rain
9:56 AM 66.9 °F 50.0 °F 54% 30.23 in 10.0 mi Variable 3.5 mph - 0.00 in Rain Light Rain
10:56 AM 70.0 °F 46.9 °F 44% 30.20 in 10.0 mi West 4.6 mph - 0.00 in Rain Light Rain
11:56 AM 73.9 °F 46.9 °F 38% 30.17 in 10.0 mi North 4.6 mph - 0.00 in   Clear
12:56 PM 73.9 °F 45.0 °F 35% 30.15 in 10.0 mi Variable 3.5 mph - 0.00 in Rain Light Rain
1:56 PM 75.0 °F 46.9 °F 37% 30.13 in 10.0 mi Variable 4.6 mph - 0.00 in   Scattered Clouds
2:56 PM 75.9 °F 48.9 °F 38% 30.12 in 10.0 mi NW 3.5 mph - N/A   Partly Cloudy
3:56 PM 73.9 °F 50.0 °F 43% 30.12 in 10.0 mi Calm Calm - N/A   Clear
4:56 PM 66.9 °F 52.0 °F 59% 30.12 in 10.0 mi Calm Calm - N/A   Clear
5:56 PM 60.1 °F 52.0 °F 75% 30.14 in 10.0 mi Calm Calm - N/A   Clear
6:56 PM 55.9 °F 52.0 °F 87% 30.15 in 10.0 mi Calm Calm - N/A   Clear
7:56 PM 53.1 °F 50.0 °F 89% 30.17 in 10.0 mi Calm Calm - N/A   Clear
8:56 PM 52.0 °F 50.0 °F 93% 30.18 in 7.0 mi Calm Calm - N/A   Clear
9:56 PM 50.0 °F 48.0 °F 93% 30.19 in 6.0 mi Calm Calm - N/A   Clear
10:56 PM 50.0 °F 46.9 °F 89% 30.19 in 9.0 mi Calm Calm - N/A   Clear
11:56 PM 48.9 °F 46.0 °F 90% 30.18 in 8.0 mi Calm Calm - N/A   Clear